sat.trackr.live / text

‹ back to catalog

STARLINK-36071

NORAD 66808 · 2025-278T

PAYLOAD ACTIVE UNKNOWN

§ Identity

Operator
Country
US
Launch date
2025-12-01
Launch site
AFETR
Launch vehicle
Mass (kg)
RCS (m²)

Purposes: comms

External: N2YO · Heavens-Above · Gunter

§ Orbital elements

Epoch: 2026-05-25T01:24:51.913152Z

Period
94.27 min
Inclination
42.9983°
Eccentricity
0.0001403
Mean motion
15.27569060 rev/d
Perigee alt
482.1 km
Apogee alt
484.0 km
Semi-major
6,861.2 km
B*
1.6652e-4
RAAN
42.6491°
Arg perigee
273.8525°
Mean anomaly
86.2166°
Rev number
2,689

§ Raw data

STARLINK-360711 66808U 25278T   26145.05893418  .00004322  00000+0  16652-3 0  99912 66808  42.9983  42.6491 0001403 273.8525  86.2166 15.27569060 26896

JSON: /api/v1/satellites/66808 · /tle

For live sub-satellite position, see the globe view (requires WebGL).

§ Visibility from observer

Set your observer location to see the next 7 days of passes ≥ 10°. The values pass through the URL so the page stays shareable.

No JS? Fill the form by hand. The geolocation button needs JavaScript.